Location: Juzet
(42.9779°N, 0.7597°E)
Time: 07:42:49
(UTC+00:00)

CZ-2D R/B - Pass Details

Date: 14 July 2020
Orbit: 792 x 845 km, 98.7° (Epoch: 04 August)

Event Time Altitude Azimuth Distance (km) Brightness Sun altitude
Rises 00:40:33 0° 25° (NNE) 3,351 6.6 -24.8°
Reaches altitude 10° 00:43:14 10° 37° (NE) 2,423 5.4 -24.7°
Maximum altitude 00:47:47 28° 95° (E) 1,522 3.5 -24.6°
Enters shadow 00:49:08 25° 119° (ESE) 1,625 3.5 -24.5°
